Zurück zum Katalog

STARLINK-35631

AktivKommunikationVLEO
NORAD 66121·PAYLOAD·🇺🇸 United States

Gestartet Oct 22, 2025 von Vandenberg Space Force Base

Loading…

Nächste Überflüge (nächste 24 Stunden)

TLE

AktuellSource: CelesTrak SupGP

Epoche: Sep 14, 2026, 20:53 UTC

1 66121C 25237H   26257.87062500  .00047027  00000+0  13894-2 0  2578
2 66121  53.1574 239.8912 0001248  95.5507 103.8611 15.34367839    13

Verfolge STARLINK-35631 in Echtzeit mit AllMySat

Download on the App Store